Time,TemperatureF,DewpointF,PressureIn,WindDirection,WindDirectionDegrees,WindSpeedMPH,WindSpeedGustMPH,Humidity,HourlyPrecipIn,Conditions,Clouds,dailyrainin,SoftwareType,DateUTC
2013-12-20 00:00:00,25.0,18.0,30.04,NNE,22,1.0,1.0,78,0.00,,,0.00,TxWx,2013-12-20 05:00:00,
2013-12-20 00:14:00,24.0,17.0,30.04,SSW,202,0.0,0.0,78,0.00,,,0.00,TxWx,2013-12-20 05:14:00,
2013-12-20 00:19:00,25.0,18.0,30.04,ESE,112,0.0,0.0,78,0.00,,,0.00,TxWx,2013-12-20 05:19:00,
2013-12-20 00:25:00,25.0,18.0,30.04,NNW,337,1.0,1.0,78,0.00,,,0.00,TxWx,2013-12-20 05:25:00,
2013-12-20 00:30:00,25.0,18.0,30.04,WNW,292,1.0,1.0,78,0.00,,,0.00,TxWx,2013-12-20 05:30:00,
2013-12-20 00:35:00,25.0,18.0,30.04,ENE,67,1.0,1.0,78,0.00,,,0.00,TxWx,2013-12-20 05:35:00,
2013-12-20 00:40:00,25.0,18.0,30.04,NE,45,1.0,1.0,78,0.00,,,0.00,TxWx,2013-12-20 05:40:00,
2013-12-20 00:45:00,25.0,18.0,30.04,NNE,22,1.0,1.0,78,0.00,,,0.00,TxWx,2013-12-20 05:45:00,
2013-12-20 00:51:00,25.0,18.0,30.04,NNE,22,1.0,1.0,78,0.00,,,0.00,TxWx,2013-12-20 05:51:00,
2013-12-20 00:56:00,25.0,18.0,30.04,NNE,22,0.0,0.0,78,0.00,,,0.00,TxWx,2013-12-20 05:56:00,
2013-12-20 01:01:00,25.0,18.0,30.03,NNE,22,0.0,0.0,78,0.00,,,0.00,TxWx,2013-12-20 06:01:00,
2013-12-20 01:06:00,24.0,17.0,30.03,NE,45,1.0,1.0,78,0.00,,,0.00,TxWx,2013-12-20 06:06:00,
2013-12-20 01:11:00,24.0,17.0,30.04,North,0,1.0,1.0,78,0.00,,,0.00,TxWx,2013-12-20 06:11:00,
2013-12-20 01:16:00,24.0,17.0,30.04,NNE,22,1.0,1.0,79,0.00,,,0.00,TxWx,2013-12-20 06:16:00,
2013-12-20 01:21:00,24.0,17.0,30.04,North,0,1.0,2.0,79,0.00,,,0.00,TxWx,2013-12-20 06:21:00,
2013-12-20 01:27:00,24.0,17.0,30.04,North,0,2.0,3.0,79,0.00,,,0.00,TxWx,2013-12-20 06:27:00,
2013-12-20 01:32:00,24.0,17.0,30.04,NNE,22,1.0,1.0,79,0.00,,,0.00,TxWx,2013-12-20 06:32:00,
2013-12-20 01:37:00,25.0,18.0,30.03,North,0,2.0,2.0,79,0.00,,,0.00,TxWx,2013-12-20 06:37:00,
2013-12-20 01:42:00,25.0,18.0,30.03,NNE,22,1.0,1.0,79,0.00,,,0.00,TxWx,2013-12-20 06:42:00,
2013-12-20 01:47:00,25.0,18.0,30.03,NNW,337,1.0,1.0,79,0.00,,,0.00,TxWx,2013-12-20 06:47:00,
2013-12-20 01:52:00,25.0,18.0,30.03,West,270,0.0,0.0,79,0.00,,,0.00,TxWx,2013-12-20 06:52:00,
2013-12-20 01:57:00,24.0,17.0,30.03,ENE,67,0.0,1.0,79,0.00,,,0.00,TxWx,2013-12-20 06:57:00,
2013-12-20 02:02:00,24.0,17.0,30.03,South,180,0.0,1.0,79,0.00,,,0.00,TxWx,2013-12-20 07:02:00,
2013-12-20 02:07:00,24.0,17.0,30.03,SE,135,0.0,1.0,79,0.00,,,0.00,TxWx,2013-12-20 07:07:00,
2013-12-20 02:12:00,25.0,19.0,30.03,SW,225,1.0,1.0,80,0.00,,,0.00,TxWx,2013-12-20 07:12:00,
2013-12-20 02:17:00,25.0,19.0,30.03,South,180,1.0,1.0,80,0.00,,,0.00,TxWx,2013-12-20 07:17:00,
2013-12-20 02:23:00,25.0,19.0,30.03,South,180,1.0,1.0,80,0.00,,,0.00,TxWx,2013-12-20 07:23:00,
2013-12-20 02:28:00,25.0,19.0,30.03,SSE,157,2.0,2.0,80,0.00,,,0.00,TxWx,2013-12-20 07:28:00,
2013-12-20 02:33:00,25.0,19.0,30.04,SSW,202,0.0,1.0,80,0.00,,,0.00,TxWx,2013-12-20 07:33:00,
2013-12-20 02:38:00,25.0,19.0,30.04,NNE,22,0.0,0.0,80,0.00,,,0.00,TxWx,2013-12-20 07:38:00,
2013-12-20 02:43:00,25.0,19.0,30.04,North,0,3.0,3.0,80,0.00,,,0.00,TxWx,2013-12-20 07:43:00,
2013-12-20 02:48:00,25.0,19.0,30.04,North,0,1.0,1.0,80,0.00,,,0.00,TxWx,2013-12-20 07:48:00,
2013-12-20 02:53:00,25.0,19.0,30.04,NNW,337,1.0,1.0,80,0.00,,,0.00,TxWx,2013-12-20 07:53:00,
2013-12-20 02:58:00,25.0,19.0,30.04,ENE,67,0.0,0.0,80,0.00,,,0.00,TxWx,2013-12-20 07:58:00,
2013-12-20 03:04:00,25.0,19.0,30.03,SW,225,1.0,1.0,80,0.00,,,0.00,TxWx,2013-12-20 08:04:00,
2013-12-20 03:09:00,25.0,19.0,30.03,WSW,247,1.0,1.0,80,0.00,,,0.00,TxWx,2013-12-20 08:09:00,
2013-12-20 03:14:00,25.0,19.0,30.03,East,90,0.0,1.0,80,0.00,,,0.00,TxWx,2013-12-20 08:14:00,
2013-12-20 03:19:00,25.0,19.0,30.02,SE,135,1.0,1.0,80,0.00,,,0.00,TxWx,2013-12-20 08:19:00,
2013-12-20 03:24:00,25.0,19.0,30.02,SSE,157,0.0,1.0,80,0.00,,,0.00,TxWx,2013-12-20 08:24:00,
2013-12-20 03:29:00,24.0,18.0,30.02,South,180,0.0,0.0,80,0.00,,,0.00,TxWx,2013-12-20 08:29:00,
2013-12-20 03:34:00,24.0,18.0,30.02,SW,225,0.0,0.0,80,0.00,,,0.00,TxWx,2013-12-20 08:34:00,
2013-12-20 03:39:00,24.0,18.0,30.02,North,0,2.0,2.0,81,0.00,,,0.00,TxWx,2013-12-20 08:39:00,
2013-12-20 03:44:00,24.0,18.0,30.03,NNE,22,0.0,1.0,81,0.00,,,0.00,TxWx,2013-12-20 08:44:00,
2013-12-20 03:49:00,24.0,18.0,30.02,NNW,337,1.0,2.0,81,0.00,,,0.00,TxWx,2013-12-20 08:49:00,
2013-12-20 03:54:00,24.0,18.0,30.03,North,0,1.0,1.0,81,0.00,,,0.00,TxWx,2013-12-20 08:54:00,
2013-12-20 03:59:00,24.0,18.0,30.03,NE,45,1.0,1.0,81,0.00,,,0.00,TxWx,2013-12-20 08:59:00,
2013-12-20 04:05:00,24.0,18.0,30.02,NE,45,1.0,1.0,81,0.00,,,0.00,TxWx,2013-12-20 09:05:00,
2013-12-20 04:10:00,23.0,17.0,30.02,NNE,22,3.0,3.0,81,0.00,,,0.00,TxWx,2013-12-20 09:10:00,
2013-12-20 04:15:00,23.0,17.0,30.02,NNE,22,2.0,2.0,81,0.00,,,0.00,TxWx,2013-12-20 09:15:00,
2013-12-20 04:20:00,24.0,18.0,30.01,North,0,3.0,3.0,81,0.00,,,0.00,TxWx,2013-12-20 09:20:00,
2013-12-20 04:25:00,25.0,19.0,30.01,North,0,3.0,4.0,82,0.00,,,0.00,TxWx,2013-12-20 09:25:00,
2013-12-20 04:30:00,25.0,19.0,30.02,ENE,67,1.0,2.0,82,0.00,,,0.00,TxWx,2013-12-20 09:30:00,
2013-12-20 04:35:00,25.0,19.0,30.01,WNW,292,2.0,2.0,81,0.00,,,0.00,TxWx,2013-12-20 09:35:00,
2013-12-20 04:40:00,26.0,20.0,30.02,North,0,3.0,4.0,82,0.00,,,0.00,TxWx,2013-12-20 09:40:00,
2013-12-20 04:46:00,27.0,21.0,30.01,NNW,337,3.0,3.0,82,0.00,,,0.00,TxWx,2013-12-20 09:46:00,
2013-12-20 04:51:00,27.0,21.0,30.01,NNW,337,2.0,3.0,82,0.00,,,0.00,TxWx,2013-12-20 09:51:00,
2013-12-20 04:56:00,27.0,21.0,30.01,NNW,337,5.0,5.0,81,0.00,,,0.00,TxWx,2013-12-20 09:56:00,
2013-12-20 05:01:00,27.0,21.0,30.01,North,0,3.0,3.0,81,0.00,,,0.00,TxWx,2013-12-20 10:01:00,
2013-12-20 05:02:00,43.0,27.0,29.87,North,0,3.0,4.0,55,0.00,,,0.28,TxWx,2013-12-20 10:02:00,
2013-12-20 05:03:00,43.0,27.0,29.87,NW,315,3.0,3.0,55,0.00,,,0.28,TxWx,2013-12-20 10:03:00,
2013-12-20 05:04:00,43.0,27.0,29.87,NNW,337,3.0,3.0,55,0.00,,,0.28,TxWx,2013-12-20 10:04:00,
2013-12-20 05:06:00,28.0,22.0,30.01,North,0,3.0,3.0,80,0.00,,,0.00,TxWx,2013-12-20 10:06:00,
2013-12-20 05:09:00,43.0,27.0,29.87,NNW,337,3.0,4.0,55,0.00,,,0.28,TxWx,2013-12-20 10:09:00,
2013-12-20 05:10:00,43.0,27.0,29.87,North,0,5.0,5.0,55,0.00,,,0.28,TxWx,2013-12-20 10:10:00,
2013-12-20 05:11:00,28.0,21.0,30.00,NNW,337,3.0,4.0,80,0.00,,,0.00,TxWx,2013-12-20 10:11:00,
2013-12-20 05:12:00,43.0,27.0,29.87,NNE,22,4.0,5.0,55,0.00,,,0.28,TxWx,2013-12-20 10:12:00,
2013-12-20 05:13:00,43.0,27.0,29.87,North,0,4.0,5.0,55,0.00,,,0.28,TxWx,2013-12-20 10:13:00,
2013-12-20 05:15:00,43.0,27.0,29.87,NNE,22,5.0,5.0,55,0.00,,,0.28,TxWx,2013-12-20 10:15:00,
2013-12-20 05:16:00,28.0,21.0,30.00,NNW,337,3.0,4.0,79,0.00,,,0.00,TxWx,2013-12-20 10:16:00,
2013-12-20 05:17:00,43.0,27.0,29.87,North,0,5.0,5.0,55,0.00,,,0.28,TxWx,2013-12-20 10:17:00,
2013-12-20 05:18:00,43.0,27.0,29.86,NNW,337,5.0,6.0,55,0.00,,,0.28,TxWx,2013-12-20 10:18:00,
2013-12-20 05:20:00,43.0,27.0,29.86,North,0,4.0,4.0,55,0.00,,,0.28,TxWx,2013-12-20 10:20:00,
2013-12-20 05:21:00,28.0,21.0,30.00,NNE,22,6.0,6.0,79,0.00,,,0.00,TxWx,2013-12-20 10:21:00,
2013-12-20 05:23:00,43.0,26.0,29.87,NNW,337,4.0,5.0,54,0.00,,,0.28,TxWx,2013-12-20 10:23:00,
2013-12-20 05:24:00,43.0,26.0,29.87,NNW,337,5.0,6.0,54,0.00,,,0.28,TxWx,2013-12-20 10:24:00,
2013-12-20 05:25:00,44.0,27.0,29.87,North,0,2.0,3.0,54,0.00,,,0.28,TxWx,2013-12-20 10:25:00,
2013-12-20 05:26:00,44.0,27.0,29.87,NNE,22,5.0,6.0,54,0.00,,,0.28,TxWx,2013-12-20 10:26:00,
2013-12-20 05:27:00,29.0,22.0,30.00,North,0,6.0,6.0,79,0.00,,,0.00,TxWx,2013-12-20 10:27:00,
2013-12-20 05:28:00,44.0,27.0,29.87,NNW,337,4.0,6.0,54,0.00,,,0.28,TxWx,2013-12-20 10:28:00,
2013-12-20 05:29:00,44.0,27.0,29.87,NNW,337,3.0,4.0,54,0.00,,,0.28,TxWx,2013-12-20 10:29:00,
2013-12-20 05:30:00,44.0,27.0,29.87,West,270,3.0,4.0,53,0.00,,,0.28,TxWx,2013-12-20 10:30:00,
2013-12-20 05:32:00,30.0,23.0,30.00,NNE,22,6.0,6.0,78,0.00,,,0.00,TxWx,2013-12-20 10:32:00,
2013-12-20 05:36:00,44.0,27.0,29.87,SW,225,6.0,6.0,53,0.00,,,0.28,TxWx,2013-12-20 10:36:00,
2013-12-20 05:37:00,30.0,23.0,30.00,NNE,22,6.0,7.0,77,0.00,,,0.00,TxWx,2013-12-20 10:37:00,
2013-12-20 05:38:00,42.0,26.0,29.87,SSW,202,6.0,6.0,54,0.00,,,0.28,TxWx,2013-12-20 10:38:00,
2013-12-20 05:39:00,42.0,26.0,29.87,SSW,202,5.0,5.0,54,0.00,,,0.28,TxWx,2013-12-20 10:39:00,
2013-12-20 05:40:00,42.0,26.0,29.87,SW,225,5.0,6.0,55,0.00,,,0.28,TxWx,2013-12-20 10:40:00,
2013-12-20 05:41:00,41.0,25.0,29.87,SSW,202,5.0,5.0,55,0.00,,,0.28,TxWx,2013-12-20 10:41:00,
2013-12-20 05:42:00,31.0,23.0,30.00,North,0,5.0,6.0,76,0.00,,,0.00,TxWx,2013-12-20 10:42:00,
2013-12-20 05:43:00,41.0,26.0,29.87,SSW,202,5.0,5.0,57,0.00,,,0.28,TxWx,2013-12-20 10:43:00,
2013-12-20 05:45:00,40.0,25.0,29.87,SSW,202,2.0,3.0,58,0.00,,,0.28,TxWx,2013-12-20 10:45:00,
2013-12-20 05:47:00,31.0,23.0,30.00,NNE,22,3.0,5.0,74,0.00,,,0.00,TxWx,2013-12-20 10:47:00,
2013-12-20 05:48:00,40.0,26.0,29.87,SSE,157,1.0,1.0,59,0.00,,,0.28,TxWx,2013-12-20 10:48:00,
2013-12-20 05:49:00,40.0,26.0,29.87,South,180,1.0,2.0,59,0.00,,,0.28,TxWx,2013-12-20 10:49:00,
2013-12-20 05:50:00,40.0,26.0,29.87,South,180,2.0,2.0,59,0.00,,,0.28,TxWx,2013-12-20 10:50:00,
2013-12-20 05:51:00,40.0,26.0,29.87,WSW,247,1.0,2.0,59,0.00,,,0.28,TxWx,2013-12-20 10:51:00,
2013-12-20 05:52:00,31.0,22.0,30.00,North,0,4.0,5.0,73,0.00,,,0.00,TxWx,2013-12-20 10:52:00,
2013-12-20 05:53:00,40.0,26.0,29.87,SE,135,1.0,1.0,60,0.00,,,0.28,TxWx,2013-12-20 10:53:00,
2013-12-20 05:54:00,40.0,26.0,29.87,SSE,157,0.0,0.0,60,0.00,,,0.28,TxWx,2013-12-20 10:54:00,
2013-12-20 05:55:00,40.0,26.0,29.87,West,270,1.0,1.0,60,0.00,,,0.28,TxWx,2013-12-20 10:55:00,
2013-12-20 05:57:00,31.0,22.0,30.00,NNW,337,4.0,5.0,73,0.00,,,0.00,TxWx,2013-12-20 10:57:00,
2013-12-20 06:03:00,31.0,22.0,30.00,North,0,6.0,6.0,72,0.00,,,0.00,TxWx,2013-12-20 11:03:00,
2013-12-20 06:08:00,31.0,22.0,30.00,NNW,337,4.0,5.0,71,0.00,,,0.00,TxWx,2013-12-20 11:08:00,
2013-12-20 06:13:00,31.0,22.0,29.99,North,0,5.0,5.0,71,0.00,,,0.00,TxWx,2013-12-20 11:13:00,
2013-12-20 06:18:00,31.0,22.0,29.98,North,0,5.0,5.0,71,0.00,,,0.00,TxWx,2013-12-20 11:18:00,
2013-12-20 06:23:00,31.0,22.0,29.98,North,0,5.0,5.0,71,0.00,,,0.00,TxWx,2013-12-20 11:23:00,
2013-12-20 06:28:00,30.0,21.0,29.98,North,0,4.0,4.0,71,0.00,,,0.00,TxWx,2013-12-20 11:28:00,
2013-12-20 06:33:00,30.0,21.0,29.98,NNE,22,3.0,4.0,71,0.00,,,0.00,TxWx,2013-12-20 11:33:00,
2013-12-20 06:38:00,30.0,21.0,29.98,North,0,5.0,5.0,71,0.00,,,0.00,TxWx,2013-12-20 11:38:00,
2013-12-20 06:44:00,30.0,21.0,29.98,NNE,22,5.0,5.0,71,0.00,,,0.00,TxWx,2013-12-20 11:44:00,
2013-12-20 06:49:00,30.0,21.0,29.98,North,0,5.0,5.0,71,0.00,,,0.00,TxWx,2013-12-20 11:49:00,
2013-12-20 06:54:00,30.0,21.0,29.98,NNE,22,4.0,5.0,71,0.00,,,0.00,TxWx,2013-12-20 11:54:00,
2013-12-20 06:59:00,30.0,21.0,29.98,NNE,22,5.0,6.0,72,0.00,,,0.00,TxWx,2013-12-20 11:59:00,
2013-12-20 07:04:00,30.0,21.0,29.99,NNE,22,5.0,6.0,72,0.00,,,0.00,TxWx,2013-12-20 12:04:00,
2013-12-20 07:09:00,29.0,20.0,29.98,NE,45,5.0,6.0,72,0.00,,,0.00,TxWx,2013-12-20 12:09:00,
2013-12-20 07:14:00,29.0,20.0,29.98,North,0,5.0,7.0,72,0.00,,,0.00,TxWx,2013-12-20 12:14:00,
2013-12-20 07:20:00,29.0,20.0,29.98,North,0,6.0,6.0,73,0.00,,,0.00,TxWx,2013-12-20 12:20:00,
2013-12-20 07:25:00,29.0,20.0,29.98,North,0,3.0,5.0,73,0.00,,,0.00,TxWx,2013-12-20 12:25:00,
2013-12-20 07:30:00,29.0,21.0,29.98,North,0,4.0,6.0,74,0.00,,,0.00,TxWx,2013-12-20 12:30:00,
2013-12-20 07:35:00,29.0,21.0,29.98,North,0,5.0,6.0,74,0.00,,,0.00,TxWx,2013-12-20 12:35:00,
2013-12-20 07:40:00,29.0,21.0,29.99,NNE,22,4.0,5.0,74,0.00,,,0.00,TxWx,2013-12-20 12:40:00,
2013-12-20 07:45:00,29.0,21.0,29.99,NNE,22,5.0,6.0,75,0.00,,,0.00,TxWx,2013-12-20 12:45:00,
2013-12-20 07:50:00,29.0,21.0,29.99,North,0,8.0,8.0,75,0.00,,,0.00,TxWx,2013-12-20 12:50:00,
2013-12-20 07:55:00,30.0,22.0,29.99,NNW,337,6.0,7.0,75,0.00,,,0.00,TxWx,2013-12-20 12:55:00,
2013-12-20 08:01:00,30.0,22.0,29.98,North,0,7.0,8.0,75,0.00,,,0.00,TxWx,2013-12-20 13:01:00,
2013-12-20 08:02:00,44.0,30.0,29.86,NNE,22,5.0,6.0,60,0.00,,,0.28,TxWx,2013-12-20 13:02:00,
2013-12-20 08:03:00,43.0,29.0,29.86,NNE,22,6.0,8.0,60,0.00,,,0.28,TxWx,2013-12-20 13:03:00,
2013-12-20 08:05:00,43.0,29.0,29.86,NNW,337,6.0,6.0,60,0.00,,,0.28,TxWx,2013-12-20 13:05:00,
2013-12-20 08:06:00,30.0,22.0,29.98,North,0,6.0,6.0,75,0.00,,,0.00,TxWx,2013-12-20 13:06:00,
2013-12-20 08:09:00,43.0,29.0,29.85,North,0,5.0,6.0,60,0.00,,,0.28,TxWx,2013-12-20 13:09:00,
2013-12-20 08:11:00,30.0,22.0,29.98,North,0,6.0,7.0,75,0.00,,,0.00,TxWx,2013-12-20 13:11:00,
2013-12-20 08:13:00,43.0,29.0,29.86,North,0,8.0,10.0,60,0.00,,,0.28,TxWx,2013-12-20 13:13:00,
2013-12-20 08:16:00,30.0,22.0,29.97,North,0,6.0,8.0,75,0.00,,,0.00,TxWx,2013-12-20 13:16:00,
2013-12-20 08:18:00,43.0,29.0,29.86,North,0,6.0,8.0,60,0.00,,,0.28,TxWx,2013-12-20 13:18:00,
2013-12-20 08:19:00,43.0,29.0,29.86,North,0,10.0,11.0,59,0.00,,,0.28,TxWx,2013-12-20 13:19:00,
2013-12-20 08:21:00,30.0,22.0,29.97,North,0,8.0,9.0,75,0.00,,,0.00,TxWx,2013-12-20 13:21:00,
2013-12-20 08:23:00,43.0,29.0,29.86,NNE,22,7.0,8.0,59,0.00,,,0.28,TxWx,2013-12-20 13:23:00,
2013-12-20 08:26:00,30.0,22.0,29.97,NNW,337,8.0,9.0,75,0.00,,,0.00,TxWx,2013-12-20 13:26:00,
2013-12-20 08:27:00,43.0,28.0,29.87,NNE,22,8.0,10.0,59,0.00,,,0.28,TxWx,2013-12-20 13:27:00,
2013-12-20 08:31:00,31.0,23.0,29.98,North,0,8.0,9.0,75,0.00,,,0.00,TxWx,2013-12-20 13:31:00,
2013-12-20 08:36:00,32.0,24.0,29.97,North,0,6.0,8.0,74,0.00,,,0.00,TxWx,2013-12-20 13:36:00,
2013-12-20 08:41:00,33.0,24.0,29.98,NNE,22,5.0,6.0,73,0.00,,,0.00,TxWx,2013-12-20 13:41:00,
2013-12-20 08:46:00,32.0,23.0,29.97,North,0,6.0,6.0,72,0.00,,,0.00,TxWx,2013-12-20 13:46:00,
2013-12-20 08:52:00,32.0,23.0,29.97,North,0,7.0,9.0,72,0.00,,,0.00,TxWx,2013-12-20 13:52:00,
2013-12-20 08:57:00,32.0,23.0,29.97,NNE,22,10.0,10.0,72,0.00,,,0.00,TxWx,2013-12-20 13:57:00,
2013-12-20 09:02:00,32.0,23.0,29.96,North,0,8.0,8.0,72,0.00,,,0.00,TxWx,2013-12-20 14:02:00,
2013-12-20 09:07:00,33.0,24.0,29.96,NNE,22,7.0,8.0,72,0.00,,,0.00,TxWx,2013-12-20 14:07:00,
2013-12-20 09:12:00,33.0,24.0,29.95,North,0,8.0,10.0,71,0.00,,,0.00,TxWx,2013-12-20 14:12:00,
2013-12-20 09:17:00,33.0,23.0,29.95,NNW,337,8.0,8.0,70,0.00,,,0.00,TxWx,2013-12-20 14:17:00,
2013-12-20 09:22:00,33.0,23.0,29.95,North,0,10.0,10.0,71,0.00,,,0.00,TxWx,2013-12-20 14:22:00,
2013-12-20 09:27:00,34.0,24.0,29.95,NNE,22,7.0,8.0,70,0.00,,,0.00,TxWx,2013-12-20 14:27:00,
2013-12-20 09:32:00,35.0,25.0,29.95,North,0,6.0,7.0,69,0.00,,,0.00,TxWx,2013-12-20 14:32:00,
2013-12-20 09:37:00,35.0,24.0,29.95,North,0,8.0,10.0,68,0.00,,,0.00,TxWx,2013-12-20 14:37:00,
2013-12-20 09:43:00,36.0,25.0,29.96,NNE,22,11.0,11.0,67,0.00,,,0.00,TxWx,2013-12-20 14:43:00,
2013-12-20 09:48:00,36.0,25.0,29.96,North,0,5.0,5.0,66,0.00,,,0.00,TxWx,2013-12-20 14:48:00,
2013-12-20 09:53:00,36.0,25.0,29.96,North,0,8.0,8.0,66,0.00,,,0.00,TxWx,2013-12-20 14:53:00,
2013-12-20 09:58:00,36.0,24.0,29.95,NNE,22,10.0,10.0,65,0.00,,,0.00,TxWx,2013-12-20 14:58:00,
2013-12-20 10:03:00,36.0,24.0,29.94,NNW,337,10.0,12.0,65,0.00,,,0.00,TxWx,2013-12-20 15:03:00,
2013-12-20 10:08:00,36.0,24.0,29.94,NNW,337,10.0,10.0,65,0.00,,,0.00,TxWx,2013-12-20 15:08:00,
2013-12-20 10:13:00,37.0,25.0,29.93,North,0,6.0,10.0,64,0.00,,,0.00,TxWx,2013-12-20 15:13:00,
2013-12-20 10:18:00,37.0,25.0,29.93,NNE,22,8.0,8.0,63,0.00,,,0.00,TxWx,2013-12-20 15:18:00,
2013-12-20 10:23:00,38.0,25.0,29.93,North,0,5.0,5.0,62,0.00,,,0.00,TxWx,2013-12-20 15:23:00,
2013-12-20 10:29:00,38.0,25.0,29.93,NNW,337,10.0,10.0,62,0.00,,,0.00,TxWx,2013-12-20 15:29:00,
2013-12-20 10:34:00,38.0,25.0,29.93,North,0,13.0,16.0,61,0.00,,,0.00,TxWx,2013-12-20 15:34:00,
2013-12-20 10:39:00,38.0,24.0,29.92,North,0,12.0,12.0,60,0.00,,,0.00,TxWx,2013-12-20 15:39:00,
2013-12-20 10:44:00,39.0,25.0,29.92,North,0,10.0,12.0,60,0.00,,,0.00,TxWx,2013-12-20 15:44:00,
2013-12-20 10:49:00,39.0,25.0,29.92,North,0,8.0,8.0,60,0.00,,,0.00,TxWx,2013-12-20 15:49:00,
2013-12-20 10:54:00,39.0,25.0,29.92,NE,45,3.0,5.0,60,0.00,,,0.01,TxWx,2013-12-20 15:54:00,
2013-12-20 10:59:00,39.0,25.0,29.92,NNE,22,6.0,7.0,59,0.00,,,0.01,TxWx,2013-12-20 15:59:00,
2013-12-20 11:04:00,39.0,25.0,29.92,North,0,10.0,10.0,59,0.60,,,0.01,TxWx,2013-12-20 16:04:00,
2013-12-20 11:09:00,39.0,25.0,29.92,North,0,8.0,9.0,59,0.60,,,0.02,TxWx,2013-12-20 16:09:00,
2013-12-20 11:14:00,39.0,24.0,29.91,North,0,8.0,11.0,58,0.60,,,0.02,TxWx,2013-12-20 16:14:00,
2013-12-20 11:20:00,39.0,24.0,29.91,NNE,22,8.0,10.0,58,0.60,,,0.06,TxWx,2013-12-20 16:20:00,
2013-12-20 11:25:00,40.0,25.0,29.91,North,0,5.0,7.0,58,0.60,,,0.08,TxWx,2013-12-20 16:25:00,
2013-12-20 11:30:00,40.0,25.0,29.90,NNE,22,6.0,6.0,57,0.60,,,0.10,TxWx,2013-12-20 16:30:00,
2013-12-20 11:35:00,40.0,25.0,29.90,NNE,22,6.0,10.0,57,0.60,,,0.11,TxWx,2013-12-20 16:35:00,
2013-12-20 11:40:00,40.0,25.0,29.89,NNW,337,11.0,13.0,57,0.60,,,0.12,TxWx,2013-12-20 16:40:00,
2013-12-20 11:45:00,40.0,25.0,29.89,NNW,337,7.0,8.0,57,0.60,,,0.14,TxWx,2013-12-20 16:45:00,
2013-12-20 11:50:00,40.0,25.0,29.89,NNW,337,9.0,10.0,56,0.60,,,0.15,TxWx,2013-12-20 16:50:00,
2013-12-20 11:55:00,40.0,25.0,29.89,North,0,7.0,7.0,57,0.60,,,0.16,TxWx,2013-12-20 16:55:00,
2013-12-20 12:00:00,40.0,25.0,29.89,North,0,5.0,8.0,57,0.60,,,0.17,TxWx,2013-12-20 17:00:00,
2013-12-20 12:06:00,40.0,25.0,29.88,North,0,6.0,7.0,57,0.60,,,0.18,TxWx,2013-12-20 17:06:00,
2013-12-20 12:11:00,40.0,25.0,29.88,North,0,8.0,9.0,57,0.60,,,0.20,TxWx,2013-12-20 17:11:00,
2013-12-20 12:16:00,40.0,25.0,29.89,North,0,8.0,8.0,57,0.60,,,0.20,TxWx,2013-12-20 17:16:00,
2013-12-20 12:21:00,40.0,25.0,29.89,NE,45,6.0,10.0,57,0.60,,,0.21,TxWx,2013-12-20 17:21:00,
2013-12-20 12:26:00,40.0,25.0,29.88,NNW,337,5.0,9.0,57,0.60,,,0.22,TxWx,2013-12-20 17:26:00,
2013-12-20 12:31:00,40.0,25.0,29.88,North,0,6.0,9.0,57,0.60,,,0.23,TxWx,2013-12-20 17:31:00,
2013-12-20 12:37:00,40.0,25.0,29.88,North,0,6.0,6.0,57,0.60,,,0.23,TxWx,2013-12-20 17:37:00,
2013-12-20 12:42:00,41.0,26.0,29.88,NNE,22,8.0,9.0,58,0.60,,,0.24,TxWx,2013-12-20 17:42:00,
2013-12-20 12:47:00,41.0,26.0,29.87,North,0,8.0,8.0,58,0.60,,,0.24,TxWx,2013-12-20 17:47:00,
2013-12-20 12:52:00,41.0,27.0,29.87,NNE,22,7.0,7.0,59,0.60,,,0.25,TxWx,2013-12-20 17:52:00,
2013-12-20 12:57:00,42.0,28.0,29.87,North,0,8.0,8.0,59,0.60,,,0.26,TxWx,2013-12-20 17:57:00,
2013-12-20 13:02:00,42.0,28.0,29.88,NNW,337,6.0,8.0,59,0.60,,,0.26,TxWx,2013-12-20 18:02:00,
2013-12-20 13:07:00,42.0,28.0,29.87,NNW,337,8.0,10.0,59,0.60,,,0.27,TxWx,2013-12-20 18:07:00,
2013-12-20 13:12:00,42.0,28.0,29.87,North,0,5.0,6.0,59,0.60,,,0.28,TxWx,2013-12-20 18:12:00,
2013-12-20 13:17:00,42.0,28.0,29.87,NNW,337,5.0,6.0,59,0.60,,,0.28,TxWx,2013-12-20 18:17:00,
2013-12-20 13:22:00,42.0,28.0,29.87,North,0,5.0,5.0,59,0.60,,,0.28,TxWx,2013-12-20 18:22:00,
2013-12-20 13:28:00,42.0,28.0,29.87,NW,315,3.0,3.0,59,0.60,,,0.28,TxWx,2013-12-20 18:28:00,
2013-12-20 13:33:00,42.0,27.0,29.87,NNE,22,3.0,5.0,59,0.00,,,0.28,TxWx,2013-12-20 18:33:00,
2013-12-20 13:38:00,42.0,27.0,29.87,North,0,4.0,4.0,58,0.00,,,0.28,TxWx,2013-12-20 18:38:00,
2013-12-20 13:43:00,42.0,27.0,29.87,NNW,337,5.0,5.0,57,0.00,,,0.28,TxWx,2013-12-20 18:43:00,
2013-12-20 13:48:00,42.0,27.0,29.87,North,0,3.0,3.0,57,0.00,,,0.28,TxWx,2013-12-20 18:48:00,
2013-12-20 13:53:00,43.0,27.0,29.87,NNW,337,5.0,5.0,56,0.00,,,0.28,TxWx,2013-12-20 18:53:00,
2013-12-20 13:58:00,43.0,27.0,29.87,NNE,22,5.0,5.0,56,0.00,,,0.28,TxWx,2013-12-20 18:58:00,
2013-12-20 13:59:00,42.0,26.0,29.88,North,0,6.0,9.0,55,0.00,,,0.28,TxWx,2013-12-20 18:59:00,
2013-12-20 14:00:00,42.0,26.0,29.88,North,0,7.0,8.0,55,0.00,,,0.00,TxWx,2013-12-20 19:00:00,
2013-12-20 14:03:00,43.0,27.0,29.87,NNW,337,4.0,4.0,55,0.00,,,0.28,TxWx,2013-12-20 19:03:00,
2013-12-20 14:04:00,42.0,26.0,29.88,NNE,22,6.0,8.0,55,0.00,,,0.00,TxWx,2013-12-20 19:04:00,
2013-12-20 14:06:00,42.0,26.0,29.88,NNE,22,8.0,8.0,55,0.00,,,0.00,TxWx,2013-12-20 19:06:00,
2013-12-20 14:07:00,42.0,26.0,29.88,NNE,22,9.0,10.0,55,0.00,,,0.00,TxWx,2013-12-20 19:07:00,
2013-12-20 14:08:00,43.0,27.0,29.87,NNE,22,2.0,3.0,55,0.00,,,0.28,TxWx,2013-12-20 19:08:00,
2013-12-20 14:09:00,42.0,26.0,29.88,North,0,10.0,10.0,55,0.00,,,0.00,TxWx,2013-12-20 19:09:00,
2013-12-20 14:10:00,42.0,26.0,29.88,North,0,8.0,8.0,55,0.00,,,0.00,TxWx,2013-12-20 19:10:00,
2013-12-20 14:11:00,42.0,26.0,29.88,NNW,337,7.0,8.0,55,0.00,,,0.00,TxWx,2013-12-20 19:11:00,
2013-12-20 14:14:00,43.0,27.0,29.87,North,0,5.0,5.0,55,0.00,,,0.28,TxWx,2013-12-20 19:14:00,
2013-12-20 14:15:00,41.0,25.0,29.87,NNW,337,6.0,6.0,55,0.00,,,0.00,TxWx,2013-12-20 19:15:00,
2013-12-20 14:16:00,41.0,25.0,29.88,North,0,8.0,10.0,55,0.00,,,0.00,TxWx,2013-12-20 19:16:00,
2013-12-20 14:17:00,42.0,26.0,29.88,NNE,22,10.0,11.0,55,0.00,,,0.00,TxWx,2013-12-20 19:17:00,
2013-12-20 14:18:00,42.0,26.0,29.88,NNE,22,7.0,8.0,55,0.00,,,0.00,TxWx,2013-12-20 19:18:00,
2013-12-20 14:19:00,43.0,27.0,29.86,North,0,5.0,6.0,55,0.00,,,0.28,TxWx,2013-12-20 19:19:00,
2013-12-20 14:21:00,42.0,26.0,29.87,NNW,337,6.0,8.0,55,0.00,,,0.00,TxWx,2013-12-20 19:21:00,
2013-12-20 14:22:00,42.0,26.0,29.87,NNW,337,6.0,8.0,55,0.00,,,0.00,TxWx,2013-12-20 19:22:00,
2013-12-20 14:24:00,43.0,26.0,29.87,NNW,337,6.0,6.0,54,0.00,,,0.28,TxWx,2013-12-20 19:24:00,
2013-12-20 14:29:00,44.0,27.0,29.87,NNW,337,5.0,5.0,54,0.00,,,0.28,TxWx,2013-12-20 19:29:00,
2013-12-20 14:30:00,42.0,26.0,29.87,North,0,5.0,8.0,54,0.00,,,0.00,TxWx,2013-12-20 19:30:00,
2013-12-20 14:34:00,44.0,27.0,29.87,WSW,247,3.0,3.0,53,0.00,,,0.28,TxWx,2013-12-20 19:34:00,
2013-12-20 14:39:00,42.0,26.0,29.87,SSW,202,6.0,6.0,54,0.00,,,0.28,TxWx,2013-12-20 19:39:00,
2013-12-20 14:44:00,41.0,26.0,29.87,South,180,5.0,5.0,57,0.00,,,0.28,TxWx,2013-12-20 19:44:00,
2013-12-20 14:49:00,40.0,26.0,29.87,South,180,2.0,2.0,59,0.00,,,0.28,TxWx,2013-12-20 19:49:00,
2013-12-20 14:54:00,40.0,26.0,29.87,SE,135,0.0,0.0,60,0.00,,,0.28,TxWx,2013-12-20 19:54:00,
2013-12-20 14:59:00,40.0,26.0,29.87,NNE,22,1.0,1.0,60,0.00,,,0.28,TxWx,2013-12-20 19:59:00,
2013-12-20 15:00:00,42.0,26.0,29.88,NNW,337,7.0,9.0,55,0.00,,,0.00,TxWx,2013-12-20 20:00:00,
2013-12-20 15:01:00,42.0,26.0,29.87,North,0,6.0,6.0,55,0.00,,,0.00,TxWx,2013-12-20 20:01:00,
2013-12-20 15:02:00,42.0,26.0,29.88,NNE,22,11.0,12.0,55,0.00,,,0.00,TxWx,2013-12-20 20:02:00,
2013-12-20 15:03:00,42.0,26.0,29.88,NNW,337,5.0,6.0,55,0.00,,,0.00,TxWx,2013-12-20 20:03:00,
2013-12-20 15:04:00,42.0,26.0,29.88,North,0,9.0,9.0,55,0.00,,,0.00,TxWx,2013-12-20 20:04:00,
2013-12-20 15:05:00,41.0,27.0,29.87,ENE,67,1.0,2.0,60,0.00,,,0.28,TxWx,2013-12-20 20:05:00,
2013-12-20 15:06:00,42.0,26.0,29.87,North,0,6.0,6.0,55,0.00,,,0.00,TxWx,2013-12-20 20:06:00,
2013-12-20 15:07:00,42.0,26.0,29.88,NNW,337,8.0,8.0,55,0.00,,,0.00,TxWx,2013-12-20 20:07:00,
2013-12-20 15:08:00,42.0,26.0,29.87,NNE,22,7.0,8.0,55,0.00,,,0.00,TxWx,2013-12-20 20:08:00,
2013-12-20 15:09:00,42.0,26.0,29.87,NNE,22,6.0,7.0,55,0.00,,,0.00,TxWx,2013-12-20 20:09:00,
2013-12-20 15:10:00,41.0,27.0,29.87,WNW,292,1.0,2.0,59,0.00,,,0.28,TxWx,2013-12-20 20:10:00,
2013-12-20 15:11:00,42.0,26.0,29.87,NNE,22,7.0,8.0,54,0.00,,,0.00,TxWx,2013-12-20 20:11:00,
2013-12-20 15:12:00,42.0,26.0,29.87,North,0,6.0,6.0,54,0.00,,,0.00,TxWx,2013-12-20 20:12:00,
2013-12-20 15:13:00,42.0,26.0,29.87,North,0,7.0,7.0,54,0.00,,,0.00,TxWx,2013-12-20 20:13:00,
2013-12-20 15:14:00,42.0,26.0,29.87,NNE,22,11.0,11.0,54,0.00,,,0.00,TxWx,2013-12-20 20:14:00,
2013-12-20 15:15:00,42.0,28.0,29.86,NNW,337,1.0,2.0,59,0.00,,,0.28,TxWx,2013-12-20 20:15:00,
2013-12-20 15:16:00,42.0,26.0,29.87,NNE,22,8.0,8.0,54,0.00,,,0.00,TxWx,2013-12-20 20:16:00,
2013-12-20 15:17:00,42.0,26.0,29.87,North,0,7.0,7.0,55,0.00,,,0.00,TxWx,2013-12-20 20:17:00,
2013-12-20 15:18:00,42.0,26.0,29.87,North,0,7.0,8.0,55,0.00,,,0.00,TxWx,2013-12-20 20:18:00,
2013-12-20 15:19:00,42.0,26.0,29.87,North,0,6.0,6.0,55,0.00,,,0.00,TxWx,2013-12-20 20:19:00,
2013-12-20 15:20:00,43.0,28.0,29.86,NNW,337,1.0,1.0,58,0.00,,,0.28,TxWx,2013-12-20 20:20:00,
2013-12-20 15:21:00,42.0,26.0,29.86,NNW,337,6.0,8.0,55,0.00,,,0.00,TxWx,2013-12-20 20:21:00,
2013-12-20 15:22:00,42.0,26.0,29.86,North,0,6.0,6.0,55,0.00,,,0.00,TxWx,2013-12-20 20:22:00,
2013-12-20 15:23:00,42.0,26.0,29.86,NNW,337,8.0,10.0,55,0.00,,,0.00,TxWx,2013-12-20 20:23:00,
2013-12-20 15:24:00,42.0,26.0,29.86,North,0,10.0,10.0,55,0.00,,,0.00,TxWx,2013-12-20 20:24:00,
2013-12-20 15:25:00,43.0,28.0,29.86,North,0,3.0,5.0,58,0.00,,,0.28,TxWx,2013-12-20 20:25:00,
2013-12-20 15:28:00,41.0,25.0,29.85,North,0,6.0,8.0,55,0.00,,,0.00,TxWx,2013-12-20 20:28:00,
2013-12-20 15:30:00,44.0,29.0,29.86,NNE,22,5.0,5.0,57,0.00,,,0.28,TxWx,2013-12-20 20:30:00,
2013-12-20 15:33:00,41.0,25.0,29.85,North,0,11.0,11.0,55,0.00,,,0.00,TxWx,2013-12-20 20:33:00,
2013-12-20 15:34:00,41.0,25.0,29.85,North,0,7.0,8.0,55,0.00,,,0.00,TxWx,2013-12-20 20:34:00,
2013-12-20 15:35:00,44.0,28.0,29.86,NNE,22,8.0,8.0,56,0.00,,,0.28,TxWx,2013-12-20 20:35:00,
2013-12-20 15:38:00,41.0,25.0,29.85,NNW,337,8.0,8.0,55,0.00,,,0.00,TxWx,2013-12-20 20:38:00,
2013-12-20 15:40:00,44.0,28.0,29.86,NW,315,8.0,8.0,56,0.00,,,0.28,TxWx,2013-12-20 20:40:00,
2013-12-20 15:46:00,45.0,29.0,29.86,NNE,22,4.0,5.0,56,0.00,,,0.28,TxWx,2013-12-20 20:46:00,
2013-12-20 15:51:00,45.0,29.0,29.87,North,0,5.0,5.0,56,0.00,,,0.28,TxWx,2013-12-20 20:51:00,
2013-12-20 15:56:00,45.0,29.0,29.87,NE,45,3.0,3.0,56,0.00,,,0.28,TxWx,2013-12-20 20:56:00,
2013-12-20 16:01:00,45.0,29.0,29.87,North,0,5.0,5.0,56,0.00,,,0.28,TxWx,2013-12-20 21:01:00,
2013-12-20 16:06:00,44.0,28.0,29.87,North,0,6.0,7.0,56,0.00,,,0.28,TxWx,2013-12-20 21:06:00,
2013-12-20 16:11:00,44.0,29.0,29.87,NNE,22,7.0,7.0,57,0.00,,,0.28,TxWx,2013-12-20 21:11:00,
2013-12-20 16:16:00,44.0,29.0,29.87,NNE,22,8.0,8.0,57,0.00,,,0.28,TxWx,2013-12-20 21:16:00,
2013-12-20 16:21:00,44.0,29.0,29.86,North,0,5.0,6.0,58,0.00,,,0.28,TxWx,2013-12-20 21:21:00,
2013-12-20 16:26:00,44.0,29.0,29.87,North,0,6.0,8.0,58,0.00,,,0.28,TxWx,2013-12-20 21:26:00,
2013-12-20 16:31:00,44.0,29.0,29.86,North,0,5.0,6.0,59,0.00,,,0.28,TxWx,2013-12-20 21:31:00,
2013-12-20 16:34:00,41.0,25.0,29.86,North,0,5.0,6.0,56,0.00,,,0.00,TxWx,2013-12-20 21:34:00,
2013-12-20 16:35:00,41.0,25.0,29.86,North,0,6.0,6.0,56,0.00,,,0.00,TxWx,2013-12-20 21:35:00,
2013-12-20 16:37:00,44.0,29.0,29.87,NNW,337,6.0,7.0,59,0.00,,,0.28,TxWx,2013-12-20 21:37:00,
2013-12-20 16:39:00,41.0,25.0,29.86,North,0,7.0,9.0,56,0.00,,,0.00,TxWx,2013-12-20 21:39:00,
2013-12-20 16:41:00,41.0,25.0,29.86,North,0,9.0,10.0,56,0.00,,,0.00,TxWx,2013-12-20 21:41:00,
2013-12-20 16:42:00,44.0,30.0,29.87,North,0,6.0,8.0,59,0.00,,,0.28,TxWx,2013-12-20 21:42:00,
2013-12-20 16:46:00,41.0,25.0,29.86,North,0,6.0,6.0,56,0.00,,,0.00,TxWx,2013-12-20 21:46:00,
2013-12-20 16:47:00,44.0,30.0,29.87,NNE,22,7.0,10.0,59,0.00,,,0.28,TxWx,2013-12-20 21:47:00,
2013-12-20 16:50:00,41.0,25.0,29.86,NNW,337,6.0,9.0,56,0.00,,,0.00,TxWx,2013-12-20 21:50:00,
2013-12-20 16:51:00,42.0,26.0,29.86,NNE,22,6.0,6.0,56,0.00,,,0.00,TxWx,2013-12-20 21:51:00,
2013-12-20 16:52:00,44.0,30.0,29.86,NNW,337,6.0,6.0,59,0.00,,,0.28,TxWx,2013-12-20 21:52:00,
2013-12-20 16:53:00,41.0,25.0,29.86,NNW,337,3.0,5.0,56,0.00,,,0.00,TxWx,2013-12-20 21:53:00,
2013-12-20 16:55:00,41.0,25.0,29.86,NNE,22,3.0,3.0,56,0.00,,,0.00,TxWx,2013-12-20 21:55:00,
2013-12-20 16:56:00,41.0,25.0,29.86,NNE,22,5.0,9.0,56,0.00,,,0.00,TxWx,2013-12-20 21:56:00,
2013-12-20 16:57:00,44.0,30.0,29.85,NNW,337,11.0,13.0,59,0.00,,,0.28,TxWx,2013-12-20 21:57:00,
2013-12-20 17:01:00,41.0,25.0,29.87,NNW,337,4.0,4.0,56,0.00,,,0.00,TxWx,2013-12-20 22:01:00,
2013-12-20 17:02:00,41.0,25.0,29.87,NNE,22,5.0,5.0,56,0.00,,,0.00,TxWx,2013-12-20 22:02:00,
2013-12-20 17:03:00,43.0,29.0,29.86,North,0,9.0,10.0,60,0.00,,,0.28,TxWx,2013-12-20 22:03:00,
2013-12-20 17:08:00,43.0,29.0,29.85,NNW,337,10.0,11.0,60,0.00,,,0.28,TxWx,2013-12-20 22:08:00,
2013-12-20 17:14:00,43.0,29.0,29.86,NNW,337,8.0,10.0,60,0.00,,,0.28,TxWx,2013-12-20 22:14:00,
2013-12-20 17:19:00,43.0,29.0,29.86,North,0,9.0,11.0,59,0.00,,,0.28,TxWx,2013-12-20 22:19:00,
2013-12-20 17:24:00,43.0,28.0,29.87,NNE,22,8.0,10.0,59,0.00,,,0.28,TxWx,2013-12-20 22:24:00,
2013-12-20 17:29:00,43.0,28.0,29.87,NW,315,6.0,8.0,58,0.00,,,0.28,TxWx,2013-12-20 22:29:00,
2013-12-20 17:34:00,43.0,28.0,29.87,NW,315,6.0,7.0,58,0.00,,,0.28,TxWx,2013-12-20 22:34:00,
2013-12-20 17:39:00,43.0,28.0,29.87,North,0,5.0,5.0,58,0.00,,,0.28,TxWx,2013-12-20 22:39:00,
2013-12-20 17:44:00,43.0,28.0,29.87,North,0,8.0,8.0,58,0.00,,,0.28,TxWx,2013-12-20 22:44:00,
2013-12-20 17:50:00,43.0,28.0,29.87,North,0,5.0,5.0,58,0.00,,,0.28,TxWx,2013-12-20 22:50:00,
2013-12-20 17:55:00,43.0,28.0,29.86,NNE,22,5.0,7.0,58,0.00,,,0.28,TxWx,2013-12-20 22:55:00,
2013-12-20 18:00:00,43.0,28.0,29.86,NNE,22,6.0,8.0,58,0.00,,,0.28,TxWx,2013-12-20 23:00:00,
2013-12-20 18:05:00,42.0,27.0,29.86,NW,315,6.0,6.0,57,0.00,,,0.28,TxWx,2013-12-20 23:05:00,
2013-12-20 18:10:00,42.0,26.0,29.87,North,0,6.0,7.0,56,0.00,,,0.28,TxWx,2013-12-20 23:10:00,
2013-12-20 18:15:00,42.0,26.0,29.88,NNW,337,8.0,13.0,56,0.00,,,0.28,TxWx,2013-12-20 23:15:00,
2013-12-20 18:20:00,42.0,26.0,29.88,NNW,337,6.0,7.0,56,0.00,,,0.28,TxWx,2013-12-20 23:20:00,
2013-12-20 18:25:00,42.0,26.0,29.88,NNW,337,5.0,6.0,55,0.00,,,0.28,TxWx,2013-12-20 23:25:00,
2013-12-20 18:30:00,42.0,26.0,29.88,NNE,22,9.0,9.0,55,0.00,,,0.28,TxWx,2013-12-20 23:30:00,
2013-12-20 18:35:00,42.0,26.0,29.87,NNW,337,5.0,6.0,55,0.00,,,0.28,TxWx,2013-12-20 23:35:00,
2013-12-20 18:40:00,42.0,26.0,29.88,NNE,22,6.0,7.0,55,0.00,,,0.28,TxWx,2013-12-20 23:40:00,
2013-12-20 18:45:00,42.0,26.0,29.88,North,0,6.0,6.0,55,0.00,,,0.28,TxWx,2013-12-20 23:45:00,
2013-12-20 18:50:00,42.0,26.0,29.88,NNE,22,5.0,6.0,55,0.00,,,0.28,TxWx,2013-12-20 23:50:00,
2013-12-20 18:55:00,42.0,26.0,29.88,NNW,337,5.0,6.0,55,0.00,,,0.28,TxWx,2013-12-20 23:55:00,
2013-12-20 19:01:00,41.0,25.0,29.88,North,0,6.0,8.0,55,0.00,,,0.28,TxWx,2013-12-21 00:01:00,
2013-12-20 19:05:00,41.0,27.0,29.84,NE,45,3.0,5.0,60,0.00,,,0.00,TxWx,2013-12-21 00:05:00,
2013-12-20 19:06:00,41.0,25.0,29.88,NE,45,3.0,3.0,55,0.00,,,0.28,TxWx,2013-12-21 00:06:00,
2013-12-20 19:07:00,41.0,27.0,29.85,NNE,22,5.0,8.0,60,0.00,,,0.00,TxWx,2013-12-21 00:07:00,
2013-12-20 19:09:00,41.0,27.0,29.85,NNE,22,7.0,11.0,60,0.00,,,0.00,TxWx,2013-12-21 00:09:00,
2013-12-20 19:11:00,41.0,25.0,29.88,North,0,4.0,5.0,55,0.00,,,0.28,TxWx,2013-12-21 00:11:00,
2013-12-20 19:13:00,41.0,27.0,29.85,NNE,22,6.0,7.0,60,0.00,,,0.00,TxWx,2013-12-21 00:13:00,
2013-12-20 19:16:00,41.0,25.0,29.88,North,0,5.0,6.0,55,0.00,,,0.28,TxWx,2013-12-21 00:16:00,
2013-12-20 19:17:00,41.0,27.0,29.85,NNE,22,8.0,10.0,60,0.00,,,0.00,TxWx,2013-12-21 00:17:00,
2013-12-20 19:18:00,41.0,27.0,29.85,NNE,22,6.0,8.0,60,0.00,,,0.00,TxWx,2013-12-21 00:18:00,
2013-12-20 19:20:00,41.0,27.0,29.86,NE,45,6.0,10.0,60,0.00,,,0.00,TxWx,2013-12-21 00:20:00,
2013-12-20 19:21:00,41.0,25.0,29.89,NNW,337,6.0,8.0,56,0.00,,,0.28,TxWx,2013-12-21 00:21:00,
2013-12-20 19:23:00,41.0,27.0,29.86,NNW,337,6.0,6.0,60,0.00,,,0.00,TxWx,2013-12-21 00:23:00,
2013-12-20 19:24:00,41.0,27.0,29.86,North,0,5.0,6.0,60,0.00,,,0.00,TxWx,2013-12-21 00:24:00,
2013-12-20 19:25:00,42.0,28.0,29.86,North,0,8.0,10.0,60,0.00,,,0.00,TxWx,2013-12-21 00:25:00,
2013-12-20 19:26:00,41.0,25.0,29.88,NNE,22,6.0,6.0,56,0.00,,,0.28,TxWx,2013-12-21 00:26:00,
2013-12-20 19:29:00,42.0,28.0,29.86,NNE,22,7.0,9.0,60,0.00,,,0.00,TxWx,2013-12-21 00:29:00,
2013-12-20 19:30:00,42.0,28.0,29.85,NW,315,6.0,6.0,60,0.00,,,0.00,TxWx,2013-12-21 00:30:00,
2013-12-20 19:31:00,41.0,25.0,29.89,North,0,6.0,6.0,56,0.00,,,0.28,TxWx,2013-12-21 00:31:00,
2013-12-20 19:32:00,41.0,27.0,29.85,North,0,11.0,13.0,60,0.00,,,0.00,TxWx,2013-12-21 00:32:00,
2013-12-20 19:33:00,41.0,27.0,29.85,North,0,7.0,10.0,60,0.00,,,0.00,TxWx,2013-12-21 00:33:00,
2013-12-20 19:36:00,41.0,25.0,29.89,NE,45,4.0,5.0,55,0.00,,,0.28,TxWx,2013-12-21 00:36:00,
2013-12-20 19:41:00,42.0,26.0,29.89,NNE,22,2.0,2.0,55,0.00,,,0.28,TxWx,2013-12-21 00:41:00,
2013-12-20 19:47:00,42.0,26.0,29.90,NE,45,2.0,3.0,55,0.00,,,0.28,TxWx,2013-12-21 00:47:00,
2013-12-20 19:52:00,41.0,25.0,29.90,NNE,22,3.0,3.0,55,0.00,,,0.28,TxWx,2013-12-21 00:52:00,
2013-12-20 19:57:00,41.0,25.0,29.91,North,0,2.0,3.0,55,0.00,,,0.28,TxWx,2013-12-21 00:57:00,
2013-12-20 20:02:00,41.0,25.0,29.91,North,0,4.0,4.0,56,0.00,,,0.28,TxWx,2013-12-21 01:02:00,
2013-12-20 20:07:00,41.0,25.0,29.90,NNW,337,3.0,3.0,56,0.00,,,0.28,TxWx,2013-12-21 01:07:00,
2013-12-20 20:12:00,41.0,25.0,29.90,WSW,247,2.0,2.0,56,0.00,,,0.28,TxWx,2013-12-21 01:12:00,
2013-12-20 20:17:00,41.0,25.0,29.89,WNW,292,1.0,2.0,56,0.00,,,0.28,TxWx,2013-12-21 01:17:00,
2013-12-20 20:22:00,41.0,25.0,29.89,West,270,3.0,3.0,56,0.00,,,0.28,TxWx,2013-12-21 01:22:00,
2013-12-20 20:27:00,40.0,25.0,29.89,NNW,337,1.0,2.0,56,0.00,,,0.28,TxWx,2013-12-21 01:27:00,
2013-12-20 20:32:00,40.0,25.0,29.89,NNW,337,4.0,6.0,56,0.00,,,0.28,TxWx,2013-12-21 01:32:00,
2013-12-20 20:37:00,41.0,25.0,29.89,NNW,337,3.0,3.0,56,0.00,,,0.28,TxWx,2013-12-21 01:37:00,
2013-12-20 20:42:00,41.0,25.0,29.90,NNW,337,4.0,5.0,56,0.00,,,0.28,TxWx,2013-12-21 01:42:00,
2013-12-20 20:47:00,41.0,25.0,29.89,NNE,22,4.0,5.0,56,0.00,,,0.28,TxWx,2013-12-21 01:47:00,
2013-12-20 20:53:00,41.0,25.0,29.89,NNE,22,4.0,5.0,56,0.00,,,0.28,TxWx,2013-12-21 01:53:00,
2013-12-20 20:58:00,41.0,25.0,29.89,North,0,5.0,6.0,56,0.00,,,0.28,TxWx,2013-12-21 01:58:00,
2013-12-20 21:03:00,41.0,25.0,29.89,North,0,5.0,5.0,55,0.00,,,0.28,TxWx,2013-12-21 02:03:00,
2013-12-20 21:08:00,41.0,25.0,29.89,North,0,6.0,6.0,55,0.00,,,0.28,TxWx,2013-12-21 02:08:00,
2013-12-20 21:13:00,41.0,25.0,29.88,NNE,22,8.0,8.0,55,0.00,,,0.28,TxWx,2013-12-21 02:13:00,
2013-12-20 21:18:00,41.0,25.0,29.89,North,0,7.0,7.0,55,0.00,,,0.28,TxWx,2013-12-21 02:18:00,
2013-12-20 21:23:00,41.0,25.0,29.89,NNW,337,7.0,9.0,55,0.00,,,0.28,TxWx,2013-12-21 02:23:00,
2013-12-20 21:28:00,41.0,25.0,29.89,NNE,22,9.0,9.0,55,0.00,,,0.28,TxWx,2013-12-21 02:28:00,
2013-12-20 21:33:00,41.0,25.0,29.89,North,0,10.0,10.0,55,0.00,,,0.28,TxWx,2013-12-21 02:33:00,
2013-12-20 21:38:00,41.0,25.0,29.88,North,0,5.0,6.0,55,0.00,,,0.28,TxWx,2013-12-21 02:38:00,
2013-12-20 21:43:00,42.0,26.0,29.89,NNW,337,8.0,8.0,55,0.00,,,0.28,TxWx,2013-12-21 02:43:00,
2013-12-20 21:49:00,42.0,26.0,29.88,North,0,3.0,5.0,55,0.00,,,0.28,TxWx,2013-12-21 02:49:00,
2013-12-20 21:54:00,42.0,26.0,29.88,NNW,337,6.0,8.0,55,0.00,,,0.28,TxWx,2013-12-21 02:54:00,
2013-12-20 21:59:00,42.0,26.0,29.88,North,0,7.0,9.0,55,0.00,,,0.28,TxWx,2013-12-21 02:59:00,
2013-12-20 22:04:00,42.0,26.0,29.88,North,0,8.0,9.0,55,0.00,,,0.28,TxWx,2013-12-21 03:04:00,
2013-12-20 22:08:00,41.0,29.0,29.88,North,0,5.0,5.0,64,0.00,,,0.00,TxWx,2013-12-21 03:08:00,
2013-12-20 22:09:00,42.0,26.0,29.88,North,0,6.0,8.0,55,0.00,,,0.28,TxWx,2013-12-21 03:09:00,
2013-12-20 22:12:00,41.0,29.0,29.87,NNW,337,5.0,5.0,64,0.00,,,0.00,TxWx,2013-12-21 03:12:00,
2013-12-20 22:13:00,41.0,29.0,29.87,NW,315,5.0,5.0,64,0.00,,,0.00,TxWx,2013-12-21 03:13:00,
2013-12-20 22:14:00,42.0,26.0,29.88,North,0,8.0,13.0,55,0.00,,,0.28,TxWx,2013-12-21 03:14:00,
2013-12-20 22:15:00,41.0,29.0,29.87,North,0,4.0,5.0,64,0.00,,,0.00,TxWx,2013-12-21 03:15:00,
2013-12-20 22:17:00,41.0,29.0,29.87,North,0,4.0,4.0,64,0.00,,,0.00,TxWx,2013-12-21 03:17:00,
2013-12-20 22:18:00,41.0,29.0,29.87,NNE,22,7.0,8.0,64,0.00,,,0.00,TxWx,2013-12-21 03:18:00,
2013-12-20 22:19:00,42.0,26.0,29.88,North,0,6.0,8.0,55,0.00,,,0.28,TxWx,2013-12-21 03:19:00,
2013-12-20 22:20:00,41.0,29.0,29.88,NNE,22,6.0,6.0,64,0.00,,,0.00,TxWx,2013-12-21 03:20:00,
2013-12-20 22:21:00,41.0,29.0,29.88,North,0,6.0,6.0,64,0.00,,,0.00,TxWx,2013-12-21 03:21:00,
2013-12-20 22:24:00,42.0,26.0,29.89,NNE,22,6.0,6.0,55,0.00,,,0.28,TxWx,2013-12-21 03:24:00,
2013-12-20 22:25:00,41.0,29.0,29.88,North,0,3.0,4.0,64,0.00,,,0.00,TxWx,2013-12-21 03:25:00,
2013-12-20 22:28:00,41.0,29.0,29.87,NNE,22,4.0,5.0,64,0.00,,,0.00,TxWx,2013-12-21 03:28:00,
2013-12-20 22:29:00,42.0,26.0,29.88,North,0,10.0,10.0,55,0.00,,,0.28,TxWx,2013-12-21 03:29:00,
2013-12-20 22:31:00,41.0,29.0,29.87,NNW,337,3.0,4.0,64,0.00,,,0.00,TxWx,2013-12-21 03:31:00,
2013-12-20 22:32:00,41.0,29.0,29.87,NNW,337,4.0,5.0,64,0.00,,,0.00,TxWx,2013-12-21 03:32:00,
2013-12-20 22:35:00,42.0,26.0,29.88,NNE,22,5.0,6.0,55,0.00,,,0.28,TxWx,2013-12-21 03:35:00,
2013-12-20 22:40:00,42.0,26.0,29.89,NNE,22,8.0,10.0,55,0.00,,,0.28,TxWx,2013-12-21 03:40:00,
2013-12-20 22:45:00,42.0,26.0,29.89,North,0,6.0,7.0,55,0.00,,,0.28,TxWx,2013-12-21 03:45:00,
2013-12-20 22:50:00,42.0,26.0,29.88,NNE,22,7.0,10.0,55,0.00,,,0.28,TxWx,2013-12-21 03:50:00,
2013-12-20 22:55:00,42.0,26.0,29.88,NNE,22,7.0,7.0,55,0.00,,,0.28,TxWx,2013-12-21 03:55:00,
2013-12-20 23:00:00,42.0,30.0,29.88,North,0,1.0,1.0,64,0.00,,,0.00,TxWx,2013-12-21 04:00:00,
2013-12-20 23:01:00,42.0,26.0,29.88,NNW,337,7.0,11.0,55,0.00,,,0.00,TxWx,2013-12-21 04:01:00,
2013-12-20 23:03:00,42.0,30.0,29.88,North,0,1.0,2.0,64,0.00,,,0.00,TxWx,2013-12-21 04:03:00,
2013-12-20 23:04:00,42.0,30.0,29.88,SW,225,1.0,1.0,64,0.00,,,0.00,TxWx,2013-12-21 04:04:00,
2013-12-20 23:06:00,42.0,26.0,29.88,North,0,7.0,8.0,55,0.00,,,0.00,TxWx,2013-12-21 04:06:00,
2013-12-20 23:09:00,42.0,30.0,29.88,North,0,1.0,2.0,64,0.00,,,0.00,TxWx,2013-12-21 04:09:00,
2013-12-20 23:10:00,42.0,30.0,29.88,NNE,22,1.0,1.0,64,0.00,,,0.00,TxWx,2013-12-21 04:10:00,
2013-12-20 23:11:00,42.0,26.0,29.88,North,0,10.0,10.0,55,0.00,,,0.00,TxWx,2013-12-21 04:11:00,
2013-12-20 23:13:00,42.0,30.0,29.88,NNE,22,1.0,1.0,64,0.00,,,0.00,TxWx,2013-12-21 04:13:00,
2013-12-20 23:14:00,42.0,30.0,29.89,ENE,67,1.0,1.0,64,0.00,,,0.00,TxWx,2013-12-21 04:14:00,
2013-12-20 23:16:00,41.0,25.0,29.88,North,0,7.0,8.0,55,0.00,,,0.00,TxWx,2013-12-21 04:16:00,
2013-12-20 23:17:00,41.0,29.0,29.88,ENE,67,1.0,1.0,64,0.00,,,0.00,TxWx,2013-12-21 04:17:00,
2013-12-20 23:19:00,41.0,29.0,29.88,ENE,67,1.0,1.0,64,0.00,,,0.00,TxWx,2013-12-21 04:19:00,
2013-12-20 23:20:00,41.0,29.0,29.88,SW,225,1.0,1.0,64,0.00,,,0.00,TxWx,2013-12-21 04:20:00,
2013-12-20 23:21:00,42.0,26.0,29.87,North,0,11.0,11.0,55,0.00,,,0.00,TxWx,2013-12-21 04:21:00,
2013-12-20 23:26:00,42.0,26.0,29.87,NNW,337,11.0,12.0,55,0.00,,,0.00,TxWx,2013-12-21 04:26:00,
2013-12-20 23:32:00,42.0,26.0,29.87,North,0,6.0,6.0,54,0.00,,,0.00,TxWx,2013-12-21 04:32:00,
2013-12-20 23:37:00,42.0,26.0,29.89,North,0,6.0,8.0,54,0.00,,,0.00,TxWx,2013-12-21 04:37:00,
2013-12-20 23:42:00,42.0,26.0,29.89,North,0,5.0,5.0,54,0.00,,,0.00,TxWx,2013-12-21 04:42:00,
2013-12-20 23:47:00,42.0,26.0,29.88,NNW,337,6.0,8.0,54,0.00,,,0.00,TxWx,2013-12-21 04:47:00,
2013-12-20 23:52:00,42.0,26.0,29.88,North,0,6.0,8.0,54,0.00,,,0.00,TxWx,2013-12-21 04:52:00,
2013-12-20 23:57:00,42.0,26.0,29.87,NNW,337,7.0,7.0,55,0.00,,,0.00,TxWx,2013-12-21 04:57:00,